GFSMA_925_spd_000.txt.gz
Wind_Speed
6 4 3 3 3 4 3 5 5 6 7 8 9 9 9 9 9 8 8 10 7 5 6 8 9 12 12 12 13 14 12 11 11 11 11 14 14 13 12 12 12 11 11
8 7 6 6 6 5 4 4 6 7 9 9 8 8 9 9 9 8 7 8 9 6 6 9 9 11 15 15 14 15 15 15 13 13 13 14 14 15 14 13 13 14 13
9 8 8 7 7 5 5 5 6 7 9 10 10 10 10 9 8 7 6 6 7 7 5 8 10 10 12 15 16 15 13 15 16 18 15 15 17 19 18 15 14 14 14
10 10 8 9 8 8 9 8 8 8 9 10 10 10 10 9 7 6 4 5 5 7 7 6 7 9 10 12 13 15 17 18 17 18 19 19 17 18 19 19 18 17 16
12 11 10 10 9 9 8 8 8 8 9 9 9 9 8 6 5 4 3 3 2 2 5 6 6 8 9 12 12 12 14 17 18 18 19 20 20 20 20 20 19 20 18
12 10 10 9 8 8 7 6 7 8 8 8 10 8 4 2 3 3 4 4 5 4 3 1 3 4 6 8 11 14 14 15 14 17 18 20 22 23 23 22 22 21 21
9 8 9 9 7 7 5 6 9 7 8 4 8 3 3 1 4 2 4 5 5 5 5 5 5 1 2 2 7 7 9 14 15 15 15 17 20 23 25 25 25 24 24
12 10 10 8 5 5 5 6 5 7 4 3 6 5 2 6 5 2 3 6 6 6 6 6 5 5 3 2 3 3 6 9 10 12 13 16 18 20 22 25 27 27 27
10 9 7 5 4 5 5 3 3 4 6 0 2 5 3 1 2 6 3 3 5 7 6 6 5 5 6 3 3 4 5 5 7 8 11 13 15 17 20 22 25 26 28
9 8 8 6 4 5 4 3 3 4 4 3 2 2 2 5 4 1 5 2 2 3 5 5 3 2 4 3 4 6 5 5 5 7 9 11 13 15 18 19 22 24 25
10 11 11 8 5 6 5 3 3 3 3 5 4 2 1 2 1 4 6 4 5 1 3 3 4 3 1 2 2 4 4 6 7 7 7 9 11 14 16 17 18 23 23
12 13 12 10 7 6 6 4 4 4 4 4 5 4 4 3 3 5 6 7 6 6 5 7 6 6 6 5 5 7 6 5 6 5 7 8 10 12 15 18 21 21 21
12 13 14 11 8 7 6 5 5 4 4 5 5 6 5 6 6 7 8 8 9 10 8 7 6 8 7 7 8 10 11 8 9 7 6 8 9 11 12 15 19 22 25
11 10 12 10 10 9 9 9 8 8 6 7 6 7 10 9 9 10 11 12 9 11 11 9 6 8 8 10 12 14 11 13 13 12 12 12 11 12 15 16 18 21 24
10 11 12 11 10 11 11 11 10 9 8 9 10 10 12 12 11 11 12 12 15 9 9 11 12 8 11 12 13 15 15 15 20 20 16 15 15 17 19 18 19 21 24
10 10 11 11 12 10 11 13 12 11 11 10 10 10 11 13 13 12 11 13 13 15 11 17 15 15 13 16 16 17 17 20 21 19 22 21 21 21 22 22 23 24 25
13 11 10 11 13 12 13 16 15 12 11 11 12 12 12 12 13 11 10 12 14 14 16 21 19 18 15 16 18 18 19 20 21 21 20 23 27 27 25 26 27 29 29
17 17 7 10 14 13 14 18 17 14 13 13 13 13 12 12 10 12 13 12 14 15 18 19 22 22 19 18 17 19 21 22 22 22 24 28 26 27 29 29 32 30 31
22 23 20 20 22 19 19 20 19 17 14 14 14 13 13 12 14 14 14 15 16 15 16 19 19 19 21 20 21 20 21 23 22 22 23 22 26 28 30 31 32 31 36
30 31 33 31 17 20 22 22 19 17 15 15 15 15 15 15 15 14 15 15 15 15 18 19 19 20 17 22 22 22 21 24 24 25 26 29 30 29 30 28 31 34 34
41 37 37 26 20 24 23 24 20 19 17 17 16 17 17 16 16 16 17 16 16 18 18 20 21 22 21 19 22 24 25 25 25 27 28 29 32 31 30 33 34 35 37
46 40 34 25 22 24 24 24 21 19 18 17 16 15 15 17 20 20 20 20 19 15 17 20 23 24 23 23 24 22 24 25 22 26 27 31 31 34 34 36 38 42 46
35 29 21 18 26 24 24 24 22 21 18 16 14 12 15 21 20 16 16 17 17 15 18 18 20 21 21 22 22 22 24 26 28 31 31 34 30 35 36 39 42 44 43
27 22 16 19 26 26 22 23 22 18 18 15 10 7 11 20 23 23 17 16 16 15 16 17 17 18 19 20 20 22 25 27 27 29 29 29 31 34 39 41 46 47 48
28 25 19 19 23 23 23 25 24 20 20 17 17 19 24 21 22 20 12 13 15 16 16 15 16 19 21 23 19 17 21 21 21 26 28 31 32 36 40 44 40 42 45
25 23 19 21 23 21 22 25 27 25 21 23 21 17 17 17 16 15 11 12 13 15 12 15 17 17 18 19 19 17 18 19 24 25 28 27 33 29 18 36 35 37 39

GFSMA_925_spd_003.txt.gz
Wind_Speed
3 4 3 5 5 6 4 5 5 6 7 9 9 9 10 10 9 8 6 7 7 5 5 9 10 13 12 13 13 13 12 12 11 11 11 10 11 11 9 9 10 9 8
3 4 6 6 7 4 7 5 5 7 8 7 9 8 10 9 8 7 7 6 6 2 7 7 9 10 13 12 13 13 14 12 11 11 11 11 13 11 12 11 11 10 11
8 7 8 7 8 4 6 9 7 7 10 11 8 8 9 8 8 6 5 5 4 4 3 9 10 10 10 15 15 13 14 15 14 12 12 10 13 14 14 13 12 11 12
9 8 10 10 6 7 8 8 8 12 11 11 9 7 8 7 7 3 1 4 4 4 6 7 7 9 10 12 15 15 15 14 13 14 13 15 14 15 16 16 16 14 14
12 10 13 9 3 8 7 8 7 10 9 10 9 6 4 5 5 7 5 4 5 2 3 6 3 7 9 11 12 12 13 14 15 15 15 16 16 17 17 17 17 17 18
12 12 11 7 7 9 9 4 6 9 9 8 8 7 2 3 3 5 4 5 5 4 6 4 4 8 8 8 10 12 12 13 13 13 16 16 17 17 18 19 19 20 20
11 10 10 10 6 11 3 9 9 9 6 2 7 6 7 5 6 3 5 5 5 4 4 4 5 5 3 4 7 7 6 10 13 15 13 13 15 16 18 20 20 21 21
12 9 10 8 7 7 3 4 5 7 5 2 8 7 3 7 7 3 4 5 5 5 5 5 4 5 5 5 2 2 6 7 7 8 8 10 13 14 15 17 20 21 23
11 9 7 7 1 3 7 1 2 3 7 0 1 5 3 4 7 8 6 6 3 5 4 3 3 3 3 1 1 4 5 5 6 7 9 10 12 14 14 16 18 19 21
9 8 7 5 3 5 2 2 3 4 3 4 0 3 2 5 6 5 10 8 4 3 5 5 3 1 3 2 3 5 4 3 5 7 9 11 12 13 14 16 16 17 20
8 8 6 5 3 4 4 2 2 3 2 4 2 3 4 3 2 3 5 4 5 2 0 5 4 7 5 5 4 6 6 3 3 4 6 7 8 10 11 14 17 18 19
9 9 9 8 5 3 4 4 3 4 4 2 5 1 5 3 0 3 4 6 6 6 4 5 6 5 7 8 8 9 8 9 7 6 5 4 6 7 9 11 14 17 20
10 12 11 10 8 7 6 5 5 4 4 4 4 5 1 5 6 6 6 8 12 19 7 6 7 6 6 8 9 9 11 13 9 11 9 8 9 10 11 11 14 16 19
10 10 13 12 11 10 9 8 9 8 7 6 6 7 7 6 12 8 5 1 3 12 17 7 10 6 7 7 10 16 14 14 14 13 14 15 16 15 15 16 16 16 17
13 13 16 18 16 14 12 10 10 10 7 8 10 11 11 10 8 7 6 7 12 6 5 12 10 7 7 11 9 11 15 16 17 16 21 21 19 20 19 21 20 20 21
18 17 17 19 19 18 18 16 13 13 11 10 11 10 11 10 9 11 9 12 8 11 8 13 14 12 11 13 16 13 15 17 20 20 21 22 20 20 23 25 25 25 26
21 22 26 26 22 19 16 14 12 9 11 10 12 12 12 11 10 11 9 9 10 12 13 15 17 16 13 16 19 18 18 18 21 23 20 18 21 25 26 25 27 28 28
29 32 30 25 21 20 19 16 14 13 14 13 14 15 14 15 15 14 9 13 13 12 14 15 17 16 17 17 16 17 20 20 22 21 22 26 30 29 25 26 29 31 32
32 32 29 26 26 25 21 18 16 14 14 14 13 14 14 14 12 14 14 13 13 14 13 17 15 17 18 22 23 18 19 24 24 26 27 30 29 27 26 30 35 35 33
37 33 29 28 25 23 19 16 16 16 16 15 14 15 14 13 14 15 16 17 18 17 18 16 15 18 20 22 25 18 18 21 25 23 22 25 31 33 31 33 36 36 33
39 35 31 27 23 20 18 17 17 17 17 16 15 14 15 16 19 15 15 18 22 19 20 20 19 18 20 17 19 22 23 24 23 21 23 25 26 27 29 32 34 34 30
28 24 24 24 24 23 20 22 19 17 18 18 16 14 17 15 12 14 17 17 19 25 24 22 19 19 20 19 18 19 21 23 19 22 25 27 26 29 32 34 35 33 35
26 25 30 25 20 19 20 22 21 19 19 17 16 16 15 16 15 12 15 15 21 23 27 23 18 19 18 17 20 21 21 22 25 26 26 28 28 29 32 34 33 32 41
32 28 25 23 19 18 20 18 18 21 20 21 18 17 16 16 16 16 20 21 24 20 21 20 19 20 18 17 17 20 22 25 26 26 20 24 28 31 32 30 33 35 46
29 27 24 21 19 18 20 23 22 20 21 21 20 18 17 20 21 26 24 21 17 18 18 21 20 19 19 21 20 17 19 21 21 21 24 27 25 29 32 35 37 38 40
21 20 20 21 20 19 21 23 23 25 24 25 18 17 21 22 24 20 16 12 15 17 18 17 14 16 20 22 21 23 21 20 21 22 23 25 27 30 26 33 32 40 39

GFSMA_925_spd_006.txt.gz
Wind_Speed
4 7 1 1 3 4 7 4 4 5 7 6 8 5 8 9 8 9 7 6 7 6 3 7 12 11 13 14 13 13 12 11 11 10 11 10 10 9 7 8 7 7 6
1 4 4 4 5 3 4 5 8 8 11 12 3 6 7 6 8 4 8 6 5 4 2 6 10 10 11 14 13 13 14 12 11 11 12 12 12 11 12 9 8 8 8
6 5 6 5 3 3 5 6 7 7 11 14 7 7 4 7 3 6 4 9 6 4 1 5 7 9 10 13 15 14 14 13 11 10 10 10 11 13 11 12 10 9 8
9 6 8 8 12 1 2 6 5 4 11 7 10 4 4 4 8 3 2 3 5 3 6 4 5 7 9 10 12 12 11 13 13 13 14 13 13 12 13 13 13 13 11
10 7 9 4 3 1 5 5 5 8 10 8 9 2 2 4 5 7 4 8 3 4 2 4 1 3 7 7 8 9 10 13 13 13 13 14 14 15 15 15 13 13 13
11 8 10 8 5 6 4 3 2 7 6 6 6 7 2 3 1 3 3 7 5 7 11 6 5 7 2 3 6 8 8 10 11 12 13 15 16 15 16 17 17 16 15
10 10 11 7 7 4 4 0 2 5 11 2 5 11 10 7 6 5 7 8 7 7 6 9 10 8 4 3 2 5 6 8 10 12 13 12 13 15 15 16 17 17 17
11 12 9 8 11 4 5 5 1 3 9 4 2 9 2 4 6 5 8 7 7 8 6 7 7 7 5 3 2 1 3 6 8 9 10 12 13 14 14 15 15 17 18
11 13 8 6 3 3 4 6 3 1 6 2 1 2 3 1 3 4 8 7 7 6 6 2 2 4 4 2 1 4 5 4 4 5 7 9 11 11 13 14 15 16 17
14 13 10 10 10 6 3 4 3 3 4 7 6 5 1 1 2 1 5 9 8 10 6 2 4 1 3 2 4 6 7 5 4 5 6 7 8 9 10 12 13 14 14
15 14 12 12 9 4 9 9 5 7 4 4 8 2 5 5 2 1 3 5 8 7 8 4 4 3 4 5 5 7 6 10 8 7 7 7 7 8 9 10 12 14 14
18 15 14 13 11 7 7 8 7 6 5 3 3 3 5 2 2 1 1 4 5 3 7 10 7 8 6 4 6 10 10 12 12 11 9 8 7 7 8 9 10 11 14
20 23 18 18 16 13 13 11 11 10 7 4 3 5 4 3 3 4 4 3 2 8 7 11 8 12 9 8 8 10 11 12 15 13 13 12 12 13 13 12 13 14 14
19 26 25 22 18 18 16 15 13 12 11 10 7 5 5 6 5 8 6 3 1 3 13 12 9 9 10 8 10 10 14 11 11 15 16 17 19 19 20 18 17 18 19
18 23 25 22 22 18 18 17 16 14 9 11 10 11 9 11 11 9 6 6 7 2 3 9 6 8 7 8 11 9 13 14 16 16 20 21 19 19 19 19 20 21 22
25 25 24 24 22 22 21 20 16 16 15 13 13 14 16 13 10 7 9 12 14 14 2 9 7 8 9 10 13 12 14 16 19 22 23 23 22 21 22 23 23 23 23
31 25 28 25 25 24 24 24 20 20 21 19 15 15 9 10 10 9 11 5 3 6 6 8 12 12 15 18 17 17 20 20 22 24 25 26 25 26 27 25 25 24 24
30 35 28 28 27 27 27 27 26 20 20 22 19 15 13 12 14 15 14 11 12 13 12 13 15 16 14 13 16 13 19 22 21 22 22 25 25 28 31 30 28 27 27
33 32 32 30 30 30 31 31 29 25 21 21 19 18 17 16 14 13 11 14 13 12 11 17 19 16 18 21 21 22 23 26 20 24 26 25 31 27 29 33 35 33 32
34 30 30 31 32 33 34 30 28 25 23 20 17 15 14 15 15 15 16 16 16 15 13 13 25 23 18 19 19 18 19 18 21 22 23 25 29 27 26 30 29 34 33
32 28 26 27 28 29 28 27 26 25 23 20 17 16 17 16 16 18 16 14 17 15 13 14 16 21 20 19 16 18 18 21 22 23 24 22 25 24 25 26 26 28 31
27 23 25 27 28 30 28 28 27 25 25 23 20 16 17 12 15 17 14 15 18 19 20 19 19 17 21 20 19 21 16 17 15 19 20 25 28 27 30 35 33 31 34
23 24 26 32 30 24 23 25 29 27 25 22 19 17 19 19 16 19 16 15 16 19 24 21 23 21 21 24 20 18 16 16 19 24 26 28 25 25 26 28 32 33 33
24 21 23 27 25 25 26 19 21 27 24 21 16 17 19 20 18 16 18 19 22 23 23 22 23 24 24 22 18 18 21 22 24 24 23 18 23 27 30 28 26 36 40
18 21 24 24 23 22 25 21 21 25 25 20 21 19 19 20 22 21 19 23 25 19 18 18 22 25 24 21 20 19 22 16 17 18 21 26 23 23 28 32 35 34 36
19 20 23 23 22 20 20 20 22 22 18 20 20 21 22 23 24 22 20 16 13 14 12 15 13 12 15 22 22 23 29 19 19 16 16 20 24 27 20 31 24 32 28

GFSMA_925_spd_009.txt.gz
Wind_Speed
5 1 5 6 4 3 3 2 2 4 5 5 8 3 7 3 2 3 2 3 1 2 13 14 16 10 15 14 14 13 11 11 11 11 11 10 9 9 9 8 7 6 5
4 6 4 1 2 5 3 2 5 3 6 8 8 2 7 4 3 4 1 1 3 1 8 13 14 15 12 14 14 15 13 12 12 13 12 11 11 12 11 8 8 7 8
9 8 5 1 2 3 3 2 2 5 4 9 4 6 4 6 3 8 6 2 6 2 4 8 10 10 12 14 14 13 14 14 12 10 11 13 13 13 12 11 11 9 8
9 7 3 5 8 8 4 1 2 1 5 6 5 3 3 2 7 4 4 4 5 1 4 5 7 8 8 11 13 13 12 14 14 12 12 12 12 12 13 12 12 12 11
10 10 7 5 5 5 3 2 1 0 6 6 4 6 5 5 6 7 9 5 5 3 4 5 3 3 6 6 8 10 12 12 13 12 13 14 14 14 14 13 13 12 13
12 12 10 7 6 7 4 2 3 3 2 6 3 4 4 3 7 5 7 10 12 14 12 7 1 5 5 5 6 8 8 9 12 14 14 14 14 14 14 15 15 15 14
15 15 12 8 8 6 6 5 2 3 3 4 2 4 5 3 7 8 13 10 10 7 10 7 8 7 5 4 2 4 5 7 11 12 12 13 12 13 14 15 16 16 16
16 14 11 9 9 11 10 10 3 3 3 4 1 1 2 1 5 8 7 8 10 8 8 5 7 8 5 4 3 3 1 4 5 5 5 7 8 10 12 13 14 15 16
19 14 12 10 7 8 14 10 7 4 1 0 2 4 2 2 2 10 12 10 6 4 5 4 4 7 6 2 2 3 6 3 3 4 5 6 8 9 10 10 11 12 14
19 17 15 14 12 9 13 10 10 7 4 1 3 4 4 3 2 1 8 12 8 7 7 6 7 4 4 2 2 2 4 5 5 3 3 5 7 8 8 10 11 12 13
21 18 17 15 17 13 10 13 12 9 8 4 2 7 6 6 3 3 2 4 10 10 7 8 7 6 6 6 5 5 4 6 6 5 4 4 4 4 5 5 8 9 11
22 21 19 19 20 17 15 16 12 13 11 8 5 4 4 2 3 2 3 2 5 12 14 10 10 7 8 6 6 8 7 7 6 8 6 6 7 6 7 7 7 7 9
26 24 26 25 22 17 15 13 14 13 13 9 7 6 3 5 5 5 5 2 1 2 1 8 17 12 14 12 9 11 10 10 9 6 7 9 10 11 12 13 14 13 13
31 29 29 27 23 19 18 16 16 16 14 14 11 10 5 3 3 5 5 6 1 2 3 2 5 13 16 13 13 13 13 12 11 11 12 13 13 14 15 16 17 18 17
30 31 31 29 27 21 20 20 18 17 17 16 14 12 11 10 8 7 12 10 7 2 2 3 2 3 9 13 13 13 13 14 14 15 15 15 16 16 17 18 17 17 17
30 29 36 32 28 25 24 23 21 19 20 21 17 15 13 11 10 6 4 14 11 11 3 6 2 3 6 8 11 11 14 14 17 22 24 23 23 22 23 23 23 22 22
29 28 35 33 31 28 26 26 25 23 24 22 21 18 16 15 14 14 8 2 5 10 9 6 4 11 15 16 16 13 15 19 22 24 24 24 23 24 26 28 26 24 24
34 35 35 36 34 32 31 31 31 26 26 27 24 21 20 17 14 14 14 8 5 5 5 3 9 13 15 17 17 17 21 18 21 24 26 24 25 29 30 30 29 30 29
40 37 37 39 39 36 34 34 34 31 27 27 27 23 21 17 18 15 13 11 10 10 10 9 14 18 21 19 19 25 22 19 17 15 18 21 24 25 26 27 27 27 27
40 39 41 40 39 38 36 35 34 31 29 25 26 25 24 21 19 17 15 15 14 14 15 18 17 20 21 21 20 16 12 16 22 25 22 22 24 23 19 19 17 18 20
38 38 39 37 38 37 35 37 35 33 28 27 24 23 23 22 20 18 18 18 17 18 21 21 16 20 24 20 16 17 16 21 22 22 23 21 24 24 25 25 26 28 29
35 35 34 35 33 33 33 33 35 31 26 27 26 24 24 23 23 21 20 19 22 22 22 19 22 21 26 24 19 17 17 17 6 18 12 27 31 28 21 21 23 24 27
32 32 31 30 32 33 33 28 30 30 30 30 30 27 24 24 19 17 19 19 17 18 19 22 24 26 25 25 20 19 19 17 19 29 25 25 26 25 19 23 25 22 21
33 33 31 30 32 32 28 26 29 31 31 32 31 30 27 26 22 19 16 16 18 18 19 22 24 23 23 22 21 20 18 20 24 24 22 14 21 21 17 19 28 34 35
27 28 28 29 28 25 29 25 18 27 34 33 28 21 21 22 19 16 17 21 23 22 21 15 15 16 16 18 21 19 21 22 15 23 22 23 19 21 23 28 24 24 23
23 27 22 22 25 27 25 28 31 24 24 26 25 24 22 24 22 21 20 20 18 17 11 11 11 12 13 15 18 23 26 20 16 11 10 16 25 25 13 21 22 31 30

GFSMA_925_spd_012.txt.gz
Wind_Speed
9 5 5 4 3 6 5 5 5 1 1 3 4 1 3 3 1 3 7 6 5 5 11 10 13 12 14 13 14 14 13 13 13 12 12 11 10 9 9 8 8 7 7
11 10 6 4 6 7 6 6 4 1 2 5 2 0 4 2 2 5 5 5 5 3 6 9 10 11 12 14 13 14 13 12 12 13 12 12 12 10 10 9 10 9 9
11 10 7 5 4 6 6 5 1 1 1 3 2 2 2 4 4 6 4 2 8 4 4 6 10 11 12 13 15 15 15 14 13 13 13 14 12 12 13 12 12 10 9
13 10 7 7 6 7 6 5 4 3 0 2 3 6 4 4 2 2 2 5 4 8 6 6 6 8 8 10 13 15 15 15 15 13 12 13 13 14 14 14 12 14 12
16 11 9 7 5 8 8 6 5 3 3 3 2 4 9 6 7 6 6 4 3 6 8 6 6 6 8 8 10 13 13 13 13 14 14 14 14 14 15 14 14 14 14
18 12 11 10 8 10 10 7 5 2 2 2 1 2 5 7 8 8 8 10 8 7 6 7 5 7 7 7 8 8 9 10 12 12 13 14 14 14 14 15 16 16 16
20 16 13 13 12 12 10 8 6 2 5 1 3 2 5 6 7 12 9 12 8 5 4 3 3 6 7 5 4 5 8 8 10 11 11 12 12 13 13 14 15 16 16
18 17 15 14 15 14 12 12 7 5 5 6 4 3 1 3 7 11 11 10 10 5 5 6 5 7 6 5 3 2 2 6 7 5 6 7 11 12 11 13 13 13 15
21 19 17 16 16 15 14 13 9 11 8 7 3 4 2 3 2 7 11 9 6 7 6 5 5 5 4 2 2 2 3 3 2 4 5 6 6 8 8 9 10 10 11
25 21 19 18 15 13 16 15 13 11 11 7 5 3 3 5 3 0 7 10 8 6 6 7 7 5 4 2 2 1 2 3 4 2 3 4 5 6 7 7 8 9 10
26 24 23 20 18 17 17 16 14 13 11 6 4 6 4 3 4 3 2 5 9 9 6 8 10 8 6 6 5 3 2 3 5 4 4 4 3 4 3 4 5 6 8
29 27 26 24 21 20 19 17 14 12 12 10 6 8 7 4 5 3 2 3 7 9 12 11 13 11 10 10 8 6 6 5 4 6 5 5 6 6 6 6 6 7 9
32 31 30 28 24 24 19 17 17 14 15 14 12 9 8 6 6 6 6 3 2 4 7 12 17 17 14 12 11 9 9 9 8 6 6 8 9 9 10 10 11 12 13
37 33 32 30 27 25 21 19 18 16 16 16 14 13 9 9 8 7 6 6 1 1 3 3 4 9 16 16 14 13 14 13 13 13 11 10 10 11 11 13 13 13 13
36 37 34 33 30 28 24 21 20 18 17 15 16 13 13 11 9 6 7 8 6 2 2 2 1 2 7 12 16 16 17 17 16 17 17 16 15 14 14 16 16 16 16
36 37 36 36 35 32 27 24 23 20 19 18 17 15 14 14 13 9 5 7 13 8 3 7 3 4 3 6 9 12 16 16 18 18 19 19 20 21 21 21 21 23 23
37 37 40 39 38 35 31 28 25 22 21 22 21 20 18 16 13 12 9 6 10 13 10 7 7 8 9 12 14 16 16 17 19 20 21 22 24 25 25 23 22 23 25
36 41 41 42 40 38 35 32 29 27 25 25 22 22 22 18 16 16 15 13 9 7 7 7 10 15 15 17 18 18 20 21 21 19 20 23 21 22 24 26 25 22 22
41 40 41 42 42 40 38 35 33 31 29 27 27 26 23 20 22 19 18 16 14 12 9 10 13 16 20 19 20 21 19 20 18 14 16 20 19 20 22 22 21 18 17
42 42 43 40 40 41 40 38 37 34 32 29 27 27 27 25 23 21 20 19 16 14 13 14 16 19 19 20 19 21 23 15 18 20 22 19 18 18 17 19 20 21 20
41 42 41 39 40 40 42 41 39 36 35 32 28 27 25 27 25 25 22 21 20 19 18 17 18 19 19 22 21 17 15 18 20 22 16 16 16 22 25 24 21 17 17
39 38 37 40 40 41 42 42 40 38 37 34 31 29 25 26 26 28 23 23 22 22 21 21 22 17 21 23 23 19 17 17 6 15 9 23 18 19 17 15 15 17 20
34 34 34 37 37 41 43 40 38 35 34 32 30 31 29 28 25 25 23 23 24 23 21 21 16 20 22 25 23 21 20 19 20 23 21 20 21 20 18 18 17 17 23
32 34 35 34 35 38 40 34 35 29 29 31 32 31 28 27 22 20 21 22 21 18 17 18 19 23 23 20 21 21 21 22 20 22 23 8 23 22 21 15 25 29 26
32 35 37 37 34 31 37 29 25 25 30 32 32 29 29 27 24 21 20 16 16 20 18 16 18 16 16 16 16 17 19 18 15 24 24 14 15 19 23 26 23 16 24
35 37 38 34 30 28 30 24 24 30 32 30 28 24 23 22 21 16 16 20 21 21 18 13 11 12 14 16 15 17 19 21 19 7 3 9 18 18 8 20 12 24 27